Regional Weather Roundup
Issued by NWS Bismarck, ND

Home | Current Version | Previous Version | Text Only | Print | Product List | Glossary On
Versions: 1 2 3 4 5 6 7 8 9 10 11 12 13 14 15 16 17 18 19 20 21 22 23 24 25 26 27 28 29 30 31 32 33 34 35 36 37 38 39 40 41 42 43 44 45 46 47 48 49 50
000
ASUS43 KBIS 211720
RWRBIS

NWR BROADCAST TEXT
NATIONAL WEATHER SERVICE BISMARCK ND
1200 PM CDT SUN SEP 21 2014

NOTE: "FAIR" INDICATES FEW OR NO CLOUDS BELOW 12,000 FEET WITH NO
SIGNIFICANT WEATHER AND/OR OBSTRUCTIONS TO VISIBILITY.


CITY           SKY/WX    TMP DP  RH WIND       PRES   REMARKS
WILLISTON      SUNNY     62  42  47 S7        30.29F
MINOT          SUNNY     64  43  46 W5        30.26S
MINOT AFB      SUNNY     64  46  51 NW6       30.26S
BISMARCK       SUNNY     66  47  50 VRB3      30.30S
DICKINSON      SUNNY     66  39  37 NW8       30.31R
GARRISON         N/A     65  45  48 VRB3      30.28S
HETTINGER ARPT SUNNY     65  38  36 W5        30.33S
JAMESTOWN      SUNNY     62  51  67 NW8       30.26R
BEACH            N/A     64  34  32 W3        30.33S
CARRINGTON     FAIR      64  48  55 N8        30.27S
CROSBY         FAIR      66  41  39 SW3       30.27F
HARVEY         FAIR      63  48  59 NW10      30.26F
HAZEN          FAIR      64  46  52 W3        30.30S
LINTON         FAIR      66  46  48 NW6       30.29F
MANDAN         FAIR      64  45  48 NW7       30.31R
OAKES            N/A     63  50  63 NW10      30.26R
RUGBY          FAIR      63  48  59 NW9       30.26S
STANLEY        FAIR      63  41  45 W5        30.29S
TIOGA          FAIR      64  39  39 SW7       30.32R
WATFORD CITY   FAIR      66  37  34 W7        30.28S
$$

CITY           SKY/WX    TMP DP  RH WIND       PRES   REMARKS
GRAND FORKS    PTSUNNY   59  52  77 N13       30.23S
GRAND FORKS AF MOSUNNY   61  53  74 N9        30.24R
DEVILS LAKE    MOSUNNY   61  48  63 N6        30.23S
FARGO          CLOUDY    60  52  74 N7        30.23R
CANDO          FAIR      63  48  59 NW8       30.25S
CAVALIER       CLOUDY    57  50  77 NW10      30.23S
GRAFTON        CLOUDY    55  52  88 NW9       30.24R
GWINNER        MOSUNNY   64  48  55 N9        30.26R
LANGDON        FAIR      63  48  59 N12       30.23S
ROLLA          FAIR      63  46  55 NW8G16    30.26S
WALHALLA         N/A     59  55  88 N7        30.23S
$$

CITY           SKY/WX    TMP DP  RH WIND       PRES   REMARKS
ABERDEEN       MOSUNNY   65  49  56 N10       30.27S
MOBRIDGE       SUNNY     65  46  50 NW6       30.28S
BUFFALO          N/A     67  36  31 VRB3      30.27F
RAPID CITY     SUNNY     67  37  33 SE7       30.36S
GLASGOW        SUNNY     62  43  49 S6        30.28F
SIDNEY         SUNNY    N/A N/A N/A S5        30.31F
WOLF POINT     SUNNY     62  42  47 CALM      30.29F
MILES CITY     SUNNY     65  41  41 SE7       30.30F
BAKER          SUNNY     65  36  34 CALM      30.33F
$$

CITY           SKY/WX    TMP DP  RH WIND       PRES   REMARKS
BILLINGS       SUNNY     60  44  55 SE3       30.28F
GREAT FALLS    SUNNY     63  44  50 SE5       30.22F
REGINA         SUNNY     64  43  45 W8        30.24
ESTEVAN        SUNNY     63  46  55 W6        30.27F
$$



USA.gov is the U.S. government's official web portal to all federal, state and local government web resources and services.